Location: Unspecified
(40.1503°N, 0.0000°E)
Time: 02:41:43
(UTC+00:00)

SL-14 DEB - Visible Passes

Search period start: 04 April 2026 00:00
Search period end: 14 April 2026 00:00
Orbit: 748 x 794 km, 81.2° (Epoch: 28 March)

Date Brightness Start Highest point End Pass type
(mag) Time Alt. Az. Time Alt. Az. Time Alt. Az.
4 Apr ? 19:50:58 10° NW 19:54:18 17° W 19:57:37 10° SW visible
5 Apr ? 19:14:17 10° NNW 19:18:52 31° W 19:23:24 10° SSW visible
7 Apr ? 19:46:30 10° WNW 19:48:01 11° W 19:49:31 10° W visible
8 Apr ? 19:08:45 10° NW 19:12:37 21° W 19:16:27 10° SW visible
11 Apr ? 19:03:32 10° NW 19:06:14 14° W 19:08:53 10° WSW visible
